Location: Oberkirch
(48.5323°N, 8.0787°E)
Time: 15:17:07
(UTC+00:00)

Vanguard 3 - Pass Details

Date: 20 February 2026
Orbit: 507 x 3205 km, 33.3° (Epoch: 5 March)

Event Time Altitude Azimuth Distance (km) Brightness Sun altitude
Rises 17:26:35 0° 252° (WSW) 4,894 13.5 -5.6°
Reaches altitude 10° 17:31:19 10° 238° (WSW) 3,365 11.6 -6.4°
Maximum altitude 17:36:46 20° 195° (SSW) 2,092 9.6 -7.3°
Drops below altitude 10° 17:40:42 10° 148° (SSE) 2,319 9.3 -7.9°
Sets 17:43:15 0° 130° (SE) 2,996 9.7 -8.3°
